2021-09-25 00:03:08 r, 19.48m,0000000001Hz,0000338679c,0000000.735s, 017.4C,00002191
2021-09-25 00:13:08 r, 19.39m,0000000002Hz,0000312176c,0000000.677s, 017.0C,00002191
2021-09-25 00:23:10 r, 19.31m,0000000001Hz,0000290845c,0000000.631s, 017.0C,00002191
2021-09-25 00:33:08 r, 19.20m,0000000002Hz,0000262819c,0000000.570s, 016.7C,00002191
2021-09-25 00:43:08 r, 19.15m,0000000002Hz,0000251528c,0000000.546s, 016.7C,00002191
2021-09-25 00:53:11 r, 18.40m,0000000004Hz,0000125330c,0000000.272s, 016.4C,00002191
2021-09-25 01:03:08 r, 18.83m,0000000002Hz,0000187307c,0000000.406s, 016.7C,00002191
2021-09-25 01:13:08 r, 18.73m,0000000002Hz,0000171631c,0000000.372s, 016.7C,00002191
2021-09-25 01:23:11 r, 18.37m,0000000004Hz,0000122735c,0000000.266s, 017.0C,00002191
2021-09-25 01:33:08 r, 18.18m,0000000005Hz,0000102022c,0000000.221s, 017.0C,00002191
2021-09-25 01:43:08 r, 18.46m,0000000003Hz,0000132481c,0000000.288s, 017.4C,00002191
2021-09-25 01:53:09 r, 17.81m,0000000006Hz,0000073520c,0000000.160s, 017.4C,00002191
2021-09-25 02:03:08 r, 17.93m,0000000005Hz,0000081649c,0000000.177s, 017.7C,00002191
2021-09-25 02:13:08 r, 17.98m,0000000005Hz,0000085597c,0000000.186s, 017.7C,00002191
2021-09-25 02:23:10 r, 18.10m,0000000005Hz,0000095701c,0000000.208s, 018.0C,00002191
2021-09-25 02:33:08 r, 17.61m,0000000008Hz,0000060630c,0000000.132s, 018.0C,00002191
2021-09-25 02:43:08 r, 18.23m,0000000004Hz,0000107397c,0000000.233s, 018.3C,00002191
2021-09-25 02:53:11 r, 17.80m,0000000007Hz,0000072346c,0000000.157s, 018.6C,00002191
2021-09-25 03:03:08 r, 17.66m,0000000008Hz,0000063308c,0000000.137s, 018.6C,00002191
2021-09-25 03:13:08 r, 17.83m,0000000006Hz,0000074457c,0000000.162s, 019.0C,00002191
2021-09-25 03:23:11 r, 17.79m,0000000007Hz,0000072162c,0000000.157s, 019.0C,00002191
2021-09-25 03:33:08 r, 17.49m,0000000008Hz,0000054497c,0000000.118s, 019.3C,00002191
2021-09-25 03:43:08 r, 17.84m,0000000006Hz,0000074803c,0000000.162s, 019.3C,00002191
2021-09-25 03:53:09 r, 17.68m,0000000007Hz,0000064698c,0000000.140s, 019.6C,00002191
2021-09-25 04:03:08 r, 17.51m,0000000008Hz,0000055104c,0000000.120s, 019.6C,00002191
2021-09-25 04:13:08 r, 17.59m,0000000008Hz,0000059767c,0000000.130s, 019.9C,00002191
2021-09-25 04:23:09 r, 17.60m,0000000008Hz,0000060325c,0000000.131s, 019.9C,00002191
2021-09-25 04:33:08 r, 17.68m,0000000007Hz,0000064561c,0000000.140s, 020.3C,00002191
2021-09-25 04:43:08 r, 17.63m,0000000007Hz,0000061709c,0000000.134s, 020.3C,00002191
2021-09-25 04:53:10 r, 17.41m,0000000009Hz,0000050258c,0000000.109s, 020.3C,00002191
2021-09-25 05:03:09 r, 17.51m,0000000008Hz,0000055597c,0000000.121s, 020.3C,00002191
2021-09-25 05:13:08 r, 17.46m,0000000009Hz,0000052973c,0000000.115s, 020.3C,00002191
2021-09-25 05:23:11 r, 17.55m,0000000008Hz,0000057589c,0000000.125s, 020.3C,00002191
2021-09-25 05:33:09 r, 17.59m,0000000008Hz,0000059271c,0000000.129s, 020.3C,00002191
2021-09-25 05:43:08 r, 17.72m,0000000007Hz,0000067481c,0000000.146s, 020.3C,00002191
2021-09-25 05:53:12 r, 17.75m,0000000006Hz,0000069502c,0000000.151s, 020.3C,00002191
2021-09-25 06:03:09 r, 17.63m,0000000007Hz,0000061901c,0000000.134s, 020.3C,00002191
2021-09-25 06:13:08 r, 17.65m,0000000007Hz,0000063204c,0000000.137s, 020.6C,00002191
2021-09-25 06:23:09 r, 17.39m,0000000009Hz,0000049439c,0000000.107s, 020.6C,00002191
2021-09-25 06:33:09 r, 16.63m,0000000019Hz,0000024639c,0000000.053s, 020.6C,00002191
2021-09-25 06:43:08 r, 14.90m,0000000091Hz,0000005012c,0000000.011s, 020.6C,00002191
2021-09-25 06:53:10 r, 12.91m,0000000576Hz,0000000000c,0000000.000s, 020.6C,00002191
2021-09-25 07:03:09 r, 10.64m,0000004730Hz,0000000000c,0000000.000s, 020.9C,00002191
2021-09-25 07:13:08 r, 09.17m,0000018209Hz,0000000000c,0000000.000s, 020.9C,00002191
2021-09-25 07:23:11 r, 08.04m,0000051594Hz,0000000000c,0000000.000s, 020.9C,00002191
2021-09-25 07:33:09 r, 07.07m,0000125333Hz,0000000000c,0000000.000s, 021.2C,00002191
2021-09-25 07:43:08 r, 06.37m,0000238201Hz,0000000000c,0000000.000s, 021.5C,00002191
2021-09-25 07:53:11 r, 06.21m,0000277791Hz,0000000000c,0000000.000s, 021.5C,00002191
2021-09-25 08:03:09 r, 06.12m,0000303009Hz,0000000000c,0000000.000s, 021.5C,00002191
2021-09-25 08:13:08 r, 00.00m,0000597274Hz,0000000000c,0000000.000s, 021.5C,00002191
2021-09-25 08:23:09 r, 00.00m,0000597226Hz,0000000000c,0000000.000s, 021.9C,00002191
2021-09-25 08:33:10 r, 00.00m,0000597236Hz,0000000000c,0000000.000s, 022.2C,00002191
2021-09-25 08:43:08 r, 00.00m,0000597109Hz,0000000000c,0000000.000s, 022.2C,00002191
2021-09-25 08:53:10 r, 00.00m,0000597128Hz,0000000000c,0000000.000s, 022.5C,00002191
2021-09-25 09:03:09 r, 00.00m,0000597015Hz,0000000000c,0000000.000s, 023.2C,00002191
2021-09-25 09:13:08 r, 00.00m,0000596954Hz,0000000000c,0000000.000s, 023.8C,00002191
2021-09-25 09:23:09 r, 00.00m,0000597034Hz,0000000000c,0000000.000s, 024.4C,00002191
2021-09-25 09:33:11 r, 00.00m,0000596875Hz,0000000000c,0000000.000s, 025.1C,00002191
2021-09-25 09:43:08 r, 00.00m,0000596798Hz,0000000000c,0000000.000s, 025.7C,00002191
2021-09-25 09:53:11 r, 00.00m,0000596772Hz,0000000000c,0000000.000s, 026.1C,00002191
2021-09-25 10:03:09 r, 00.00m,0000596686Hz,0000000000c,0000000.000s, 026.4C,00002191
2021-09-25 10:13:08 r, 00.00m,0000596483Hz,0000000000c,0000000.000s, 027.0C,00002191
2021-09-25 10:23:11 r, 00.00m,0000596478Hz,0000000000c,0000000.000s, 028.0C,00002191
2021-09-25 10:33:09 r, 00.00m,0000596392Hz,0000000000c,0000000.000s, 028.3C,00002191
2021-09-25 10:43:08 r, 00.00m,0000596371Hz,0000000000c,0000000.000s, 028.6C,00002191
2021-09-25 10:53:09 r, 00.00m,0000596351Hz,0000000000c,0000000.000s, 028.6C,00002191
2021-09-25 11:03:10 r, 00.00m,0000596358Hz,0000000000c,0000000.000s, 029.0C,00002191
2021-09-25 11:13:08 r, 00.00m,0000596343Hz,0000000000c,0000000.000s, 029.0C,00002191
2021-09-25 11:23:10 r, 00.00m,0000596372Hz,0000000000c,0000000.000s, 029.3C,00002191
2021-09-25 11:33:09 r, 00.00m,0000596251Hz,0000000000c,0000000.000s, 029.6C,00002191
2021-09-25 11:43:08 r, 00.00m,0000596159Hz,0000000000c,0000000.000s, 030.6C,00002191
2021-09-25 11:53:11 r, 00.00m,0000596064Hz,0000000000c,0000000.000s, 031.2C,00002191
2021-09-25 12:03:09 r, 00.00m,0000595933Hz,0000000000c,0000000.000s, 032.8C,00002191
2021-09-25 12:13:08 r, 00.00m,0000595913Hz,0000000000c,0000000.000s, 033.5C,00002191
2021-09-25 12:23:11 r, 00.00m,0000595751Hz,0000000000c,0000000.000s, 033.5C,00002191
2021-09-25 12:33:09 r, 00.00m,0000595968Hz,0000000000c,0000000.000s, 032.5C,00002191
2021-09-25 12:43:08 r, 00.00m,0000595885Hz,0000000000c,0000000.000s, 032.8C,00002191
2021-09-25 12:53:09 r, 00.00m,0000595654Hz,0000000000c,0000000.000s, 034.4C,00002191
2021-09-25 13:03:10 r, 00.00m,0000595579Hz,0000000000c,0000000.000s, 034.8C,00002191
2021-09-25 13:13:08 r, 00.00m,0000595615Hz,0000000000c,0000000.000s, 035.1C,00002191
2021-09-25 13:23:10 r, 00.00m,0000595596Hz,0000000000c,0000000.000s, 035.1C,00002191
2021-09-25 13:33:09 r, 00.00m,0000595571Hz,0000000000c,0000000.000s, 035.4C,00002191
2021-09-25 13:43:08 r, 00.00m,0000595310Hz,0000000000c,0000000.000s, 036.7C,00002191
2021-09-25 13:53:09 r, 00.00m,0000595300Hz,0000000000c,0000000.000s, 037.7C,00002191
2021-09-25 14:03:11 r, 00.00m,0000595366Hz,0000000000c,0000000.000s, 037.0C,00002191
2021-09-25 14:13:08 r, 00.00m,0000595202Hz,0000000000c,0000000.000s, 038.3C,00002191
2021-09-25 14:23:11 r, 00.00m,0000595138Hz,0000000000c,0000000.000s, 039.3C,00002191
2021-09-25 14:33:09 r, 00.00m,0000594933Hz,0000000000c,0000000.000s, 040.2C,00002191
2021-09-25 14:43:08 r, 00.00m,0000594673Hz,0000000000c,0000000.000s, 041.5C,00002191
2021-09-25 14:53:08 r, 00.00m,0000594749Hz,0000000000c,0000000.000s, 041.5C,00002191
2021-09-25 15:03:09 r, 00.00m,0000594835Hz,0000000000c,0000000.000s, 041.2C,00002191
2021-09-25 15:13:08 r, 00.00m,0000594942Hz,0000000000c,0000000.000s, 040.2C,00002191
2021-09-25 15:23:08 r, 00.00m,0000595194Hz,0000000000c,0000000.000s, 039.0C,00002191
2021-09-25 15:33:11 r, 00.00m,0000595063Hz,0000000000c,0000000.000s, 039.0C,00002191
2021-09-25 15:43:08 r, 00.00m,0000594825Hz,0000000000c,0000000.000s, 041.2C,00002191
2021-09-25 15:53:08 r, 00.00m,0000594966Hz,0000000000c,0000000.000s, 040.2C,00002191
2021-09-25 16:03:11 r, 00.00m,0000594834Hz,0000000000c,0000000.000s, 040.6C,00002191
2021-09-25 16:13:08 r, 00.00m,0000594970Hz,0000000000c,0000000.000s, 040.2C,00002191
2021-09-25 16:23:08 r, 00.00m,0000594738Hz,0000000000c,0000000.000s, 041.9C,00002191
2021-09-25 16:33:09 r, 00.00m,0000594317Hz,0000000000c,0000000.000s, 044.4C,00002191
2021-09-25 16:43:08 r, 00.00m,0000594580Hz,0000000000c,0000000.000s, 043.8C,00002191
2021-09-25 16:53:08 r, 00.00m,0000594712Hz,0000000000c,0000000.000s, 042.5C,00002191
2021-09-25 17:03:09 r, 00.00m,0000594836Hz,0000000000c,0000000.000s, 041.9C,00002191
2021-09-25 17:13:08 r, 00.00m,0000595002Hz,0000000000c,0000000.000s, 040.2C,00002191
2021-09-25 17:23:08 r, 00.00m,0000594869Hz,0000000000c,0000000.000s, 040.2C,00002191
2021-09-25 17:33:10 r, 00.00m,0000594878Hz,0000000000c,0000000.000s, 040.9C,00002191
2021-09-25 17:43:08 r, 00.00m,0000594844Hz,0000000000c,0000000.000s, 041.5C,00002191
2021-09-25 17:53:08 r, 00.00m,0000595025Hz,0000000000c,0000000.000s, 040.2C,00002191
2021-09-25 18:03:11 r, 00.00m,0000595157Hz,0000000000c,0000000.000s, 038.6C,00002191
2021-09-25 18:13:08 r, 00.00m,0000595248Hz,0000000000c,0000000.000s, 037.3C,00002191
2021-09-25 18:23:08 r, 00.00m,0000532362Hz,0000000000c,0000000.000s, 036.7C,00002191
2021-09-25 18:33:09 r, 00.00m,0000555910Hz,0000000000c,0000000.000s, 036.0C,00002191
2021-09-25 18:43:08 r, 05.81m,0000399928Hz,0000000000c,0000000.000s, 035.4C,00002191
2021-09-25 18:53:08 r, 06.12m,0000301508Hz,0000000000c,0000000.000s, 034.4C,00002191
2021-09-25 19:03:09 r, 06.18m,0000286084Hz,0000000000c,0000000.000s, 033.8C,00002191
2021-09-25 19:13:09 r, 06.81m,0000159673Hz,0000000000c,0000000.000s, 032.8C,00002191
2021-09-25 19:23:08 r, 08.26m,0000042174Hz,0000000000c,0000000.000s, 032.5C,00002191
2021-09-25 19:33:10 r, 09.74m,0000010755Hz,0000000000c,0000000.000s, 032.2C,00002191
2021-09-25 19:43:08 r, 11.76m,0000001667Hz,0000000000c,0000000.000s, 031.5C,00002191
2021-09-25 19:53:08 r, 14.12m,0000000189Hz,0000000000c,0000000.000s, 031.2C,00002191
2021-09-25 20:03:11 r, 16.01m,0000000033Hz,0000013920c,0000000.030s, 030.9C,00002191
2021-09-25 20:13:08 r, 17.98m,0000000006Hz,0000085113c,0000000.185s, 030.9C,00002191
2021-09-25 20:23:08 r, 18.92m,0000000002Hz,0000203463c,0000000.442s, 030.6C,00002191
2021-09-25 20:33:11 r, 18.85m,0000000003Hz,0000189929c,0000000.412s, 030.6C,00002191
2021-09-25 20:43:08 r, 19.24m,0000000001Hz,0000273555c,0000000.594s, 030.6C,00002191
2021-09-25 20:53:08 r, 19.48m,0000000001Hz,0000339662c,0000000.737s, 030.2C,00002191
2021-09-25 21:03:09 r, 20.45m,0000000001Hz,0000823572c,0000001.787s, 029.6C,00002191
2021-09-25 21:13:08 r, 19.89m,0000000001Hz,0000493291c,0000001.071s, 029.3C,00002191
2021-09-25 21:23:08 r, 19.89m,0000000001Hz,0000491614c,0000001.067s, 029.3C,00002191
2021-09-25 21:33:09 r, 19.70m,0000000001Hz,0000415887c,0000000.903s, 029.6C,00002191
2021-09-25 21:43:08 r, 19.47m,0000000002Hz,0000337836c,0000000.733s, 029.6C,00002191
2021-09-25 21:53:08 r, 19.28m,0000000002Hz,0000284232c,0000000.617s, 029.9C,00002191
2021-09-25 22:03:11 r, 19.27m,0000000002Hz,0000281393c,0000000.611s, 030.2C,00002191
2021-09-25 22:13:09 r, 19.23m,0000000001Hz,0000271728c,0000000.590s, 030.6C,00002191
2021-09-25 22:23:08 r, 19.36m,0000000001Hz,0000306802c,0000000.666s, 030.6C,00002191
2021-09-25 22:33:11 r, 19.29m,0000000001Hz,0000285999c,0000000.621s, 030.6C,00002191
2021-09-25 22:43:09 r, 19.23m,0000000002Hz,0000268859c,0000000.583s, 030.6C,00002191
2021-09-25 22:53:08 r, 19.17m,0000000002Hz,0000254164c,0000000.552s, 030.2C,00002191
2021-09-25 23:03:09 r, 19.14m,0000000002Hz,0000249598c,0000000.542s, 030.2C,00002191
2021-09-25 23:13:10 r, 19.10m,0000000002Hz,0000238917c,0000000.518s, 030.2C,00002191
2021-09-25 23:23:08 r, 19.02m,0000000002Hz,0000222988c,0000000.484s, 029.6C,00002191
2021-09-25 23:33:10 r, 18.99m,0000000002Hz,0000216731c,0000000.470s, 029.3C,00002191
2021-09-25 23:43:09 r, 18.89m,0000000002Hz,0000196766c,0000000.427s, 029.0C,00002191
2021-09-25 23:53:09 r, 18.73m,0000000003Hz,0000170811c,0000000.371s, 029.0C,00002191
